Robstown, TX

7:53 AM CDT on June 28, 2017 (GMT -0500)
Robstown

Weather History for KRBO - May, 2013

Change the Weather History Date:

Friday, May 31, 2013

  Actual Average (KCRP) Record (KCRP)
Temperature  
Mean Temperature 87 °F -  
Max Temperature 96 °F 88 °F 97 °F (2013)
Min Temperature 78 °F 70 °F 56 °F (1984)
Cooling Degree Days 22    
Growing Degree Days 37 (Base 50)    
Moisture  
Dew Point 75 °F    
Average Humidity 71    
Maximum Humidity 89    
Minimum Humidity 47    
Precipitation  
Precipitation 0.00 in - - ()
Sea Level Pressure  
Sea Level Pressure 29.83 in    
Wind  
Wind Speed 13 mph (SSE)    
Max Wind Speed 23 mph    
Max Gust Speed 30 mph    
Visibility 10 miles    
Events Rain    
Averages and records for this station are not official NWS values.
T = Trace of Precipitation, MM = Missing Value Source: NWS Daily Summary

Daily Weather History Graph

Daily Weather History Graph

Search for Another Location

Airport or City:

Trip Planner

Search our weather history database for the weather conditions in past years. The results will help you decide how hot, cold, wet, or windy it might be!

Date:

Astronomy

May. 31, 2013 Rise Set
Actual Time 6:35 AM CDT 8:22 PM CDT
Civil Twilight 6:08 AM CDT 8:48 PM CDT
Nautical Twilight 5:37 AM CDT 9:19 PM CDT
Astronomical Twilight 5:04 AM CDT 9:53 PM CDT
Moon 1:21 AM CDT (5/31) 1:25 PM CDT (5/31)
Length of Visible Light 14h 39m
Length of Day
13h 46m
Waning Gibbous, 51% of the Moon is Illuminated
May 31
Waning Gibbous
May 31
Last Quarter
Jun 8
New
Jun 16
First Quarter
Jun 23
Full

Hourly Weather History & Observations

Time (CDT) Temp. Heat Index Dew Point Humidity Pressure Visibility Wind Dir Wind Speed Gust Speed Precip Events Conditions
12:15 AM 80.1 °F 85.4 °F 75.7 °F 87% 29.84 in 10.0 mi SE 12.7 mph - N/A   Mostly Cloudy
12:35 AM 80.2 °F 85.7 °F 75.7 °F 86% 29.84 in 10.0 mi SSE 12.7 mph - N/A   Mostly Cloudy
12:55 AM 80.1 °F 85.2 °F 75.6 °F 86% 29.84 in 10.0 mi SSE 12.7 mph - N/A   Overcast
1:15 AM 80.1 °F 85.2 °F 75.6 °F 86% 29.84 in 10.0 mi SSE 11.5 mph - N/A   Overcast
1:35 AM 79.9 °F - 75.4 °F 86% 29.84 in 10.0 mi SE 9.2 mph - N/A   Mostly Cloudy
1:55 AM 80.1 °F 85.2 °F 75.4 °F 86% 29.83 in 10.0 mi SE 11.5 mph - N/A   Mostly Cloudy
2:15 AM 80.1 °F 85.2 °F 75.4 °F 86% 29.83 in 10.0 mi SE 10.4 mph - N/A   Overcast
2:35 AM 79.9 °F - 75.4 °F 86% 29.83 in 10.0 mi SSE 10.4 mph - N/A   Mostly Cloudy
2:55 AM 79.7 °F - 75.2 °F 86% 29.83 in 10.0 mi SE 9.2 mph - N/A   Mostly Cloudy
3:15 AM 79.7 °F - 75.4 °F 87% 29.83 in 10.0 mi SE 9.2 mph - N/A   Mostly Cloudy
3:35 AM 79.3 °F - 75.2 °F 87% 29.82 in 10.0 mi SE 8.1 mph - N/A   Mostly Cloudy
3:55 AM 79.7 °F - 75.6 °F 87% 29.83 in 10.0 mi SE 10.4 mph - N/A   Overcast
4:15 AM 79.9 °F - 75.7 °F 87% 29.83 in 10.0 mi SE 9.2 mph - N/A   Overcast
4:35 AM 79.7 °F - 75.4 °F 87% 29.83 in 10.0 mi SE 11.5 mph - N/A   Mostly Cloudy
4:55 AM 79.3 °F - 75.2 °F 87% 29.83 in 10.0 mi SE 8.1 mph - N/A   Scattered Clouds
5:15 AM 78.8 °F - 75.2 °F 89% 29.83 in 10.0 mi Calm Calm - N/A   Scattered Clouds
5:35 AM 79.2 °F - 75.2 °F 88% 29.83 in 10.0 mi SSE 8.1 mph - N/A   Mostly Cloudy
5:55 AM 79.7 °F - 75.4 °F 87% 29.84 in 10.0 mi Calm Calm - N/A   Overcast
6:15 AM 79.7 °F - 75.4 °F 87% 29.84 in 10.0 mi Calm Calm - N/A   Overcast
6:35 AM 79.9 °F - 75.4 °F 86% 29.84 in 10.0 mi Calm Calm - N/A   Overcast
6:55 AM 80.2 °F 85.7 °F 75.6 °F 86% 29.84 in 10.0 mi SSE 11.5 mph - N/A   Overcast
7:15 AM 80.6 °F 86.4 °F 75.7 °F 85% 29.85 in 10.0 mi SSE 10.4 mph - N/A   Mostly Cloudy
7:35 AM 81.1 °F 87.6 °F 75.7 °F 84% 29.86 in 10.0 mi SSE 12.7 mph - N/A   Mostly Cloudy
7:55 AM 81.5 °F 88.3 °F 75.9 °F 83% 29.87 in 10.0 mi SSE 12.7 mph - N/A   Overcast
8:15 AM 81.7 °F 88.7 °F 76.1 °F 83% 29.87 in 10.0 mi SSE 11.5 mph - N/A   Mostly Cloudy
8:35 AM 81.9 °F 88.7 °F 75.6 °F 81% 29.87 in 10.0 mi SSE 13.8 mph - N/A   Mostly Cloudy
8:55 AM 83.5 °F 91.2 °F 75.4 °F 76% 29.88 in 10.0 mi SSE 16.1 mph - N/A   Mostly Cloudy
9:15 AM 85.1 °F 94.1 °F 75.4 °F 73% 29.88 in 10.0 mi SSE 13.8 mph 19.6 mph N/A   Mostly Cloudy
9:35 AM 85.8 °F 94.6 °F 75.0 °F 70% 29.88 in 10.0 mi SSE 18.4 mph 23.0 mph N/A   Mostly Cloudy
9:55 AM 87.8 °F 96.1 °F 73.9 °F 63% 29.88 in 10.0 mi SSE 17.3 mph 21.9 mph N/A   Mostly Cloudy
10:15 AM 87.6 °F 95.7 °F 73.8 °F 63% 29.88 in 10.0 mi SSW 13.8 mph 20.7 mph N/A   Overcast
10:35 AM 87.3 °F 94.5 °F 72.9 °F 62% 29.88 in 10.0 mi South 15.0 mph 19.6 mph N/A   Mostly Cloudy
10:55 AM 89.1 °F 97.0 °F 73.2 °F 59% 29.88 in 10.0 mi SSE 13.8 mph - N/A   Scattered Clouds
11:15 AM 90.0 °F 99.0 °F 73.9 °F 59% 29.87 in 10.0 mi South 12.7 mph - N/A   Scattered Clouds
11:35 AM 91.4 °F 100.1 °F 73.4 °F 55% 29.87 in 10.0 mi SSE 15.0 mph 20.7 mph N/A   Clear
11:55 AM 92.1 °F 101.1 °F 73.4 °F 54% 29.86 in 10.0 mi SSE 15.0 mph 19.6 mph N/A   Scattered Clouds
12:15 PM 92.7 °F 101.7 °F 73.2 °F 53% 29.86 in 10.0 mi SSE 11.5 mph 21.9 mph N/A   Scattered Clouds
12:35 PM 93.6 °F 102.5 °F 72.7 °F 51% 29.86 in 10.0 mi SSE 15.0 mph 21.9 mph N/A   Scattered Clouds
12:55 PM 94.1 °F 103.8 °F 73.2 °F 51% 29.85 in 10.0 mi SSE 12.7 mph 20.7 mph N/A   Scattered Clouds
1:15 PM 94.8 °F 104.1 °F 73.0 °F 49% 29.84 in 10.0 mi SSE 18.4 mph - N/A   Scattered Clouds
1:35 PM 94.5 °F 103.9 °F 73.4 °F 50% 29.83 in 10.0 mi SSE 13.8 mph - N/A   Scattered Clouds
1:55 PM 95.2 °F 104.9 °F 73.2 °F 49% 29.82 in 10.0 mi South 11.5 mph 20.7 mph N/A   Scattered Clouds
2:15 PM 94.5 °F 103.3 °F 72.7 °F 49% 29.81 in 10.0 mi SE 11.5 mph 19.6 mph N/A   Scattered Clouds
2:35 PM 96.1 °F 105.6 °F 73.0 °F 47% 29.81 in 10.0 mi SE 11.5 mph 20.7 mph N/A   Scattered Clouds
2:55 PM 95.4 °F 104.7 °F 72.7 °F 48% 29.81 in 10.0 mi SE 11.5 mph 20.7 mph N/A   Mostly Cloudy
3:15 PM 95.4 °F 106.1 °F 73.8 °F 50% 29.80 in 10.0 mi SSE 18.4 mph 27.6 mph N/A   Mostly Cloudy
3:35 PM 95.2 °F 105.6 °F 73.9 °F 50% 29.80 in 10.0 mi SSE 17.3 mph 26.5 mph N/A   Mostly Cloudy
3:55 PM 95.0 °F 105.2 °F 73.8 °F 50% 29.79 in 10.0 mi SE 21.9 mph 26.5 mph N/A   Scattered Clouds
4:15 PM 94.6 °F 104.4 °F 73.6 °F 50% 29.79 in 10.0 mi SE 18.4 mph 25.3 mph N/A   Scattered Clouds
4:35 PM 94.6 °F 105.1 °F 73.8 °F 51% 29.78 in 10.0 mi SE 23.0 mph 27.6 mph N/A   Scattered Clouds
4:55 PM 94.5 °F 104.6 °F 73.8 °F 51% 29.78 in 10.0 mi SE 21.9 mph - N/A   Scattered Clouds
5:15 PM 93.7 °F 102.9 °F 73.0 °F 51% 29.77 in 10.0 mi SE 19.6 mph 27.6 mph N/A   Clear
5:35 PM 93.2 °F 101.7 °F 72.7 °F 51% 29.77 in 10.0 mi SE 23.0 mph - N/A   Clear
5:55 PM 92.7 °F 101.1 °F 72.7 °F 52% 29.77 in 10.0 mi SE 21.9 mph 26.5 mph N/A   Clear
6:15 PM 91.6 °F 99.9 °F 72.9 °F 54% 29.77 in 10.0 mi SE 20.7 mph 26.5 mph N/A   Clear
6:35 PM 90.7 °F 98.5 °F 72.3 °F 55% 29.77 in 10.0 mi SE 21.9 mph 28.8 mph N/A   Clear
6:55 PM 89.8 °F 97.5 °F 72.5 °F 57% 29.77 in 10.0 mi SE 23.0 mph 28.8 mph N/A   Clear
7:15 PM 88.2 °F 96.0 °F 73.4 °F 61% 29.78 in 10.0 mi SE 23.0 mph 29.9 mph N/A   Clear
7:35 PM 86.9 °F 95.4 °F 74.3 °F 66% 29.79 in 10.0 mi SE 21.9 mph 26.5 mph N/A   Clear
7:55 PM 85.5 °F 93.4 °F 74.3 °F 69% 29.79 in 10.0 mi SE 21.9 mph 27.6 mph N/A   Clear
8:15 PM 84.6 °F 92.4 °F 74.7 °F 72% 29.79 in 10.0 mi SE 21.9 mph - N/A Rain Rain
8:35 PM 83.5 °F 91.2 °F 75.2 °F 76% 29.80 in 10.0 mi SE 19.6 mph 25.3 mph N/A   Clear
8:55 PM 82.8 °F 90.1 °F 75.4 °F 78% 29.80 in 10.0 mi SE 23.0 mph 27.6 mph N/A   Clear
9:15 PM 82.4 °F 89.8 °F 75.6 °F 80% 29.81 in 10.0 mi SE 19.6 mph 27.6 mph N/A   Scattered Clouds
9:35 PM 82.2 °F 89.3 °F 75.6 °F 80% 29.81 in 10.0 mi SE 19.6 mph 25.3 mph N/A   Scattered Clouds
9:55 PM 81.9 °F 88.7 °F 75.4 °F 81% 29.82 in 10.0 mi SE 17.3 mph - N/A   Clear
10:15 PM 81.7 °F 88.5 °F 75.6 °F 82% 29.82 in 10.0 mi SE 16.1 mph - N/A   Clear
10:35 PM 81.5 °F 88.3 °F 75.7 °F 83% 29.82 in 10.0 mi SE 12.7 mph - N/A   Scattered Clouds
10:55 PM 81.5 °F 88.3 °F 75.7 °F 83% 29.83 in 10.0 mi SSE 13.8 mph - N/A   Scattered Clouds
11:15 PM 81.5 °F 88.5 °F 76.1 °F 84% 29.83 in 10.0 mi SE 15.0 mph - N/A   Scattered Clouds
11:35 PM 81.3 °F 87.8 °F 75.7 °F 83% 29.82 in 10.0 mi SSE 15.0 mph - N/A   Mostly Cloudy
11:55 PM 81.1 °F 87.6 °F 75.7 °F 84% 29.81 in 10.0 mi SSE 16.1 mph - N/A   Scattered Clouds